STARLINK-32767, 62601

Orbit data source: Space-Track

STARLINK-32767, 62601 is a payload satellite owned by SpaceX/Seattle (US) in LEO that was launched on Mon, 13 Jan 2025 UTC via an FALCON 9 launch vehicle from the Air Force Eastern Test Range (AFETR). Payload-class satellites include a variety of spacecraft equipped with specific instruments for various scientific and technological missions. These include communications satellites like Starlink; space stations such as the ISS; scientific satellites like the Hubble; Earth observation satellites from companies like Planet Labs, Umbra, and HawkEye 360; GPS; miniature CubeSats for education and research; and military/defense satellites.

Loading next visibility...
Identifier
62601, 2025-008Q
Orbit
LEO
Country
Flag of USUS
Related business
Manufacturer
SpaceX/Seattle
Mission
Operational Commercial Communications
Bus & Motor
STARLINK V2M, Unknown motor
Mass
730 kg wet, ~700 kg dry
Launch date (UTC)
2025-01-13 (1 year ago)
Launch vehicle
FALCON 9
Launch site
Air Force Eastern Test Range (AFETR)
Object type
Payload
Rocket body
Debris
Shape & HBR
Box + 2 Pan, 17.7 m
Radar Cross Section
33.884 m², Large (>1 m²)

Expand to show TLE details & history
Last TLE update: 21 hours ago

TLE from 21 hours ago
0 STARLINK-32767
1 62601U 25008Q   26120.32890795  .00021044  00000-0  77083-3 0  9993
2 62601  43.0043 346.1413 0002712 276.7127  83.3416 15.27630430 73520
Epoch: 2026-04-30T07:53Z
TLE epoch observation values (Epoch: 2026-04-30T07:53:37.646Z)
Latitude
-0.00004°
Longitude
9.45732°
Altitude
482.459 km
Speed
7.626 km/s
True Right ascension
23h 04m 33s
True Declination
0° 00' 00"
Sunlit
Object was in daylight at epoch
Visualization orbit readout
Latitude
Unknown
Longitude
Unknown
Altitude
Unknown
Speed
Unknown
Apparent Right ascension
Unknown
Apparent Declination
Unknown
Sunlit
N/A
Visualization observer readout
Local Sidereal Time
12:23:35
Azimuth
Unknown
Elevation
Unknown
Doppler factor
Unknown
Orbital elements
Apogee altitude
486.704 km
Perigee altitude
482.981 km
Semi-major axis
6,862.98 km
Eccentricity
0.00027
Inclination
43.0043°
RAAN
346.1413°
Arg. of periapsis
276.7127°
True anomaly
83.37247°
Mean anomaly
83.3416°
Eccentric anomaly
83.35703°
Mean motion
3.81746 °/min
Orbital period
94.3 mins
BSTAR
0.00077083
Loading maneuver chart data...
Computing Atmospheric mass density...
Loading historical data...
Loading historical data...
Loading historical data...
Loading historical data...
Loading historical data...
Loading historical data...
Loading historical data...

Documentation

Showing up to 5 results
|